Precipitable_Water
1.29 1.27 1.18 1.20 1.20 1.23 1.19 1.11 1.06 1.06 1.07 1.09 1.06 1.05 1.02 1.05 1.10 1.06 1.05 1.07 1.08 1.09 1.09 1.12 1.14 1.16 1.20 1.21 1.21 1.17 1.19 1.14 1.13 1.14 1.18 1.20 1.18 1.09 1.09 1.06 1.08 1.11
1.22 1.20 1.15 1.20 1.19 1.28 1.20 1.13 1.05 1.05 1.09 1.05 1.05 1.03 1.06 1.05 0.99 0.97 0.95 1.02 1.00 1.02 1.07 1.08 1.09 1.12 1.13 1.16 1.17 1.13 1.15 1.17 1.10 1.17 1.16 1.13 1.14 1.13 1.12 1.13 1.14 1.16
1.16 1.15 1.13 1.16 1.17 1.24 1.16 1.14 1.12 1.09 1.09 1.07 1.09 1.07 1.07 1.08 1.03 1.00 0.98 1.01 0.94 0.99 1.02 1.03 1.02 1.07 1.11 1.12 1.12 1.09 1.11 1.16 1.10 1.12 1.13 1.11 1.10 1.13 1.12 1.14 1.11 1.09
1.12 1.12 1.11 1.21 1.23 1.26 1.21 1.16 1.11 1.06 1.08 1.07 1.08 1.10 1.09 1.09 1.05 1.01 1.00 0.99 0.95 0.97 0.96 0.94 0.94 1.00 1.06 1.08 1.11 1.07 1.10 1.13 1.12 1.14 1.07 1.14 1.12 1.07 1.11 1.09 1.07 1.11
1.14 1.16 1.16 1.22 1.26 1.29 1.20 1.15 1.06 1.05 1.05 1.08 1.09 1.09 1.06 1.02 1.00 0.96 0.95 0.90 0.95 0.96 0.97 0.97 1.00 1.01 1.03 1.06 1.06 1.08 1.11 1.10 1.12 1.14 1.06 1.03 1.06 1.06 1.16 1.12 1.04 1.07
1.19 1.22 1.19 1.16 1.17 1.19 1.10 1.04 1.04 1.07 1.04 1.02 1.01 0.98 0.95 0.93 0.90 0.91 0.90 0.91 0.96 0.97 0.96 1.02 1.03 1.04 1.03 1.04 1.00 0.99 1.05 1.04 1.05 1.05 1.00 1.00 1.00 0.99 1.03 1.03 1.08 1.04
1.20 1.20 1.17 1.20 1.15 1.10 1.02 1.00 1.03 1.02 0.98 1.00 0.98 0.93 0.95 0.91 0.95 0.94 0.93 0.96 0.99 0.95 0.96 0.95 0.96 0.99 1.02 1.03 0.99 0.99 1.02 1.05 1.06 1.02 0.98 0.97 0.99 0.97 0.97 0.94 0.97 0.99
1.22 1.18 1.22 1.21 1.13 1.03 1.02 1.03 1.02 1.00 1.01 1.00 0.97 1.02 1.00 0.96 0.98 0.96 0.96 0.97 0.98 0.94 0.92 0.91 0.92 0.92 0.97 0.95 0.98 1.00 1.01 1.05 1.01 0.99 0.93 0.95 0.98 0.94 0.98 0.99 0.97 0.98
1.21 1.19 1.17 1.16 1.09 1.03 1.01 1.04 1.03 1.04 1.06 1.03 1.01 0.99 0.99 0.98 1.00 1.00 0.99 0.97 0.98 0.95 0.92 0.91 0.86 0.88 0.93 0.93 0.93 1.02 0.99 1.01 1.02 0.96 0.93 0.91 0.94 0.93 0.94 1.02 0.97 0.95
1.20 1.18 1.16 1.16 1.05 0.99 1.01 1.05 1.07 1.08 1.09 1.05 1.01 0.97 0.97 0.99 1.02 0.97 0.96 0.98 0.97 0.94 0.93 0.90 0.87 0.91 0.95 0.94 0.95 1.04 1.08 1.03 1.00 0.95 0.92 0.90 0.93 0.90 0.91 1.01 1.01 1.01
1.10 1.15 1.25 1.14 1.02 1.01 1.05 1.07 1.08 1.07 1.06 1.03 0.98 0.96 0.98 1.00 0.98 1.00 0.97 1.00 0.99 0.95 0.95 0.93 0.90 0.89 0.94 0.94 0.99 1.02 1.05 1.03 1.02 0.96 0.93 0.90 0.89 0.90 0.89 0.92 1.03 1.05
1.22 1.24 1.29 1.13 1.07 1.07 1.08 1.09 1.07 1.09 1.08 1.08 1.04 1.01 1.03 1.01 0.97 1.03 0.98 1.01 0.98 0.98 0.98 0.96 0.91 0.91 0.90 0.92 0.92 0.95 0.98 1.01 0.98 0.93 0.92 0.90 0.87 0.84 0.84 0.85 0.87 0.92
1.29 1.21 1.23 1.20 1.14 1.11 1.10 1.12 1.10 1.12 1.08 1.09 1.05 1.05 1.03 1.00 1.00 1.00 0.99 1.02 1.02 1.01 0.96 0.93 0.90 0.87 0.86 0.88 0.89 0.90 0.91 0.91 0.93 0.90 0.88 0.88 0.87 0.81 0.84 0.84 0.83 0.85
1.23 1.26 1.23 1.18 1.14 1.12 1.11 1.10 1.09 1.12 1.15 1.13 1.08 1.03 1.00 0.99 0.98 0.99 1.01 1.03 1.04 0.99 0.94 0.91 0.91 0.88 0.89 0.89 0.85 0.83 0.85 0.85 0.87 0.83 0.82 0.83 0.83 0.81 0.80 0.81 0.80 0.86
1.24 1.18 1.21 1.16 1.12 1.10 1.08 1.06 1.09 1.13 1.17 1.13 1.11 1.04 0.99 0.99 1.00 1.02 1.01 1.01 1.01 0.96 0.93 0.92 0.93 0.91 0.88 0.88 0.82 0.78 0.77 0.81 0.86 0.82 0.79 0.78 0.77 0.76 0.77 0.77 0.79 0.81
1.21 1.22 1.24 1.22 1.14 1.11 1.09 1.14 1.17 1.15 1.17 1.14 1.11 1.04 0.98 1.00 0.99 0.95 0.94 0.95 0.92 0.94 0.94 0.96 0.95 0.89 0.85 0.82 0.78 0.74 0.74 0.76 0.84 0.86 0.82 0.82 0.81 0.79 0.79 0.79 0.79 0.81
1.18 1.18 1.21 1.21 1.17 1.16 1.15 1.15 1.17 1.17 1.17 1.13 1.10 1.03 0.99 0.96 0.93 0.91 0.91 0.90 0.91 0.93 0.97 0.97 0.93 0.84 0.79 0.74 0.70 0.69 0.71 0.77 0.75 0.78 0.83 0.82 0.83 0.84 0.83 0.82 0.83 0.84
1.19 1.21 1.21 1.21 1.19 1.13 1.10 1.13 1.15 1.17 1.16 1.14 1.10 1.05 1.00 0.96 0.93 0.91 0.90 0.91 0.97 1.02 0.93 0.86 0.83 0.77 0.69 0.65 0.64 0.63 0.66 0.73 0.73 0.73 0.74 0.72 0.71 0.75 0.80 0.81 0.81 0.81
1.17 1.14 1.14 1.18 1.18 1.13 1.11 1.13 1.12 1.11 1.12 1.14 1.14 1.14 1.06 1.00 1.00 1.01 1.02 1.05 1.03 0.94 0.85 0.81 0.76 0.71 0.63 0.59 0.59 0.58 0.59 0.66 0.69 0.73 0.75 0.71 0.67 0.65 0.68 0.73 0.75 0.72
1.12 1.13 1.13 1.14 1.15 1.12 1.11 1.13 1.12 1.10 1.10 1.11 1.10 1.08 1.08 1.10 1.12 1.11 1.09 1.08 0.99 0.87 0.86 0.86 0.82 0.77 0.69 0.62 0.60 0.59 0.57 0.57 0.68 0.73 0.73 0.73 0.72 0.70 0.69 0.75 0.80 0.78
1.13 1.13 1.14 1.15 1.14 1.13 1.13 1.12 1.12 1.13 1.12 1.11 1.08 1.07 1.06 1.07 1.06 1.07 1.07 1.02 0.96 0.92 0.88 0.88 0.86 0.83 0.76 0.69 0.65 0.63 0.61 0.59 0.75 0.79 0.72 0.74 0.75 0.73 0.69 0.71 0.79 0.84
1.12 1.13 1.14 1.16 1.13 1.13 1.13 1.13 1.14 1.12 1.11 1.09 1.07 1.06 1.07 1.07 1.09 1.07 1.05 1.01 0.98 0.95 0.91 0.89 0.89 0.87 0.83 0.76 0.71 0.68 0.67 0.69 0.75 0.73 0.72 0.73 0.71 0.68 0.63 0.66 0.70 0.77
1.13 1.12 1.10 1.11 1.12 1.12 1.11 1.10 1.11 1.11 1.12 1.12 1.09 1.07 1.07 1.06 1.05 1.05 1.04 1.01 0.98 0.97 0.94 0.91 0.89 0.87 0.85 0.81 0.76 0.73 0.74 0.78 0.77 0.75 0.80 0.79 0.80 0.77 0.72 0.75 0.78 0.78
1.12 1.12 1.11 1.11 1.09 1.07 1.08 1.08 1.09 1.09 1.09 1.11 1.07 1.05 1.03 1.04 1.04 1.02 1.02 1.02 1.01 0.98 0.96 0.91 0.88 0.90 0.86 0.82 0.79 0.75 0.75 0.74 0.77 0.78 0.85 0.87 0.88 0.88 0.90 0.93 0.89 0.83
1.10 1.09 1.07 1.07 1.06 1.05 1.05 1.04 1.04 1.04 1.05 1.07 1.06 1.04 1.02 1.03 1.02 1.00 0.99 1.00 1.01 1.01 1.00 0.97 0.95 0.91 0.89 0.86 0.80 0.76 0.74 0.73 0.73 0.75 0.80 0.83 0.83 0.85 0.87 0.89 0.88 0.83
1.04 1.03 1.02 1.03 1.03 1.04 1.04 1.05 1.07 1.07 1.06 1.05 1.04 1.03 1.01 1.01 1.00 0.99 0.98 0.98 1.00 1.02 1.03 1.04 1.00 0.97 0.95 0.92 0.87 0.79 0.75 0.75 0.75 0.70 0.68 0.68 0.71 0.73 0.72 0.80 0.86 0.83
Wind_Speed
20 22 22 20 19 19 18 16 14 14 13 12 12 12 12 13 12 12 11 11 11 11 11 12 12 12 12 13 13 12 12 12 12 11 12 11 11 11 12 12 12 12
21 22 21 20 19 19 18 15 14 14 13 12 12 12 12 12 12 12 11 11 11 11 11 11 11 12 12 12 12 12 12 12 12 12 12 12 12 12 12 12 12 12
22 22 22 21 20 19 18 15 14 14 13 12 12 12 12 11 12 12 11 11 10 10 10 11 11 12 12 11 12 12 12 12 12 12 12 12 12 12 12 12 12 12
22 23 22 20 20 19 18 16 15 14 13 12 12 12 11 11 12 12 12 11 11 10 10 10 11 11 11 11 11 12 12 12 12 12 12 12 12 12 12 12 12 12
22 22 21 20 20 19 18 17 16 15 14 13 12 12 11 11 12 12 12 11 11 10 10 10 11 11 11 11 11 12 12 12 12 12 12 12 11 11 11 11 12 12
22 22 21 21 21 19 18 17 16 15 15 14 13 13 12 12 12 11 11 11 10 10 11 11 11 11 11 11 11 11 11 12 12 12 12 11 11 11 11 11 11 11
23 23 22 22 21 20 18 17 17 16 16 15 14 13 13 12 11 11 11 10 10 10 11 11 11 11 12 11 11 11 11 12 12 12 12 11 11 11 11 11 11 11
23 23 23 22 21 20 19 18 17 16 16 15 14 13 13 12 11 11 10 10 10 10 10 11 11 11 11 12 12 11 11 12 12 12 12 11 11 11 11 11 11 11
24 23 23 23 22 20 19 18 17 16 15 15 14 14 13 13 12 12 11 11 10 10 11 11 11 11 11 12 12 12 12 12 12 12 12 12 12 11 12 11 11 12
24 24 25 23 21 19 19 18 17 16 16 15 15 14 14 14 13 13 12 11 11 11 11 11 11 11 11 12 12 12 12 12 12 12 12 12 12 12 12 12 12 12
25 26 25 22 20 19 19 18 18 17 16 15 15 15 15 14 14 13 13 12 11 11 11 11 11 11 11 12 12 12 12 12 12 12 12 12 12 12 13 12 12 12
25 25 22 20 20 19 19 18 18 17 17 16 16 15 15 14 14 13 13 12 11 11 11 11 11 11 11 12 12 12 12 12 12 12 13 13 12 13 13 12 13 13
23 23 21 20 20 19 18 18 18 18 17 16 16 15 15 14 13 13 12 11 11 11 11 11 11 12 12 12 13 13 12 13 13 13 13 13 13 14 13 13 13 13
22 22 21 20 20 19 19 18 18 18 18 17 16 15 15 14 13 12 12 11 11 11 11 11 11 12 12 12 13 14 14 13 14 14 14 14 14 15 14 14 14 14
22 22 21 20 20 19 19 19 18 18 18 17 16 15 15 14 13 13 12 12 12 12 11 11 11 12 12 13 13 14 14 15 15 15 15 15 15 15 15 15 15 14
22 22 21 21 20 19 19 19 18 18 17 17 16 15 15 14 14 13 13 13 12 12 12 12 12 12 13 13 13 14 14 15 15 15 15 16 16 16 16 15 15 15
22 22 22 22 21 20 19 19 19 18 18 17 16 16 15 15 14 14 14 13 13 13 13 13 13 13 14 14 14 14 14 15 15 15 16 16 16 16 16 16 16 16
21 21 22 22 21 20 20 19 19 19 18 17 16 16 16 16 15 15 14 14 14 14 14 14 14 14 14 15 15 15 15 15 15 16 16 16 17 17 17 17 17 17
20 20 21 21 21 20 20 20 19 19 19 18 17 17 16 16 16 15 15 15 15 16 15 14 14 14 14 15 16 16 16 16 16 17 17 17 17 17 18 17 17 18
19 19 20 20 20 20 20 20 20 19 19 19 19 18 18 17 17 17 17 17 17 17 17 15 14 14 14 15 15 16 16 16 16 16 17 17 17 17 17 17 17 17
18 18 19 19 20 20 19 19 20 20 20 20 20 20 20 20 20 19 19 19 19 19 18 17 15 14 14 15 15 15 16 16 16 16 16 17 17 17 17 17 17 17
17 18 18 18 19 19 19 19 19 20 20 20 20 20 20 21 20 20 19 19 19 19 19 18 16 15 15 15 16 16 16 16 17 17 17 17 17 17 17 18 18 18
17 17 17 17 17 17 17 17 17 18 18 19 19 18 19 19 20 19 19 19 19 19 19 18 17 16 16 16 16 16 17 17 17 17 17 17 17 17 17 18 19 19
16 16 16 16 15 15 16 16 16 17 18 18 17 17 17 18 18 18 18 18 19 19 18 18 17 16 16 16 17 17 18 18 18 17 17 17 17 17 18 18 19 20
15 15 15 15 14 15 15 15 15 16 16 16 16 15 15 15 15 16 16 16 17 18 18 17 17 17 17 17 18 18 19 19 19 18 18 18 18 18 19 20 20 21
13 13 13 13 13 13 13 13 13 14 14 14 14 14 13 13 14 14 15 15 16 17 17 17 17 18 18 18 19 19 20 20 20 20 19 20 20 20 21 21 23 23
Wind_Direction
202 199 198 197 199 202 202 201 201 202 204 207 210 213 214 214 213 213 216 220 222 225 227 227 228 229 231 232 233 234 234 233 234 235 236 235 233 233 233 234 235 235
200 200 200 200 200 202 202 202 201 201 203 206 209 213 215 215 213 213 217 221 224 227 229 231 231 231 233 234 234 234 234 234 235 236 236 234 233 233 233 233 233 233
202 201 199 199 202 204 203 202 201 201 202 205 209 212 214 214 211 212 216 221 226 230 231 234 234 234 234 234 234 234 235 236 236 235 235 234 232 233 233 234 233 233
203 201 199 200 203 205 204 202 202 202 203 206 210 212 215 215 213 215 219 225 229 230 231 234 235 235 234 234 236 236 237 237 236 234 233 232 231 231 232 233 233 233
203 202 202 203 204 206 205 204 204 204 205 207 210 213 215 216 218 221 223 225 225 226 229 232 234 234 233 234 236 237 237 236 234 233 231 229 228 228 230 231 231 230
204 204 205 205 205 206 205 204 206 207 207 209 211 214 216 218 222 223 220 219 221 225 230 232 233 234 234 235 236 236 235 233 232 230 228 225 225 225 227 228 226 225
207 206 205 205 205 205 204 204 207 208 210 211 212 216 219 221 223 223 221 222 225 229 233 234 235 236 235 235 235 234 233 230 228 226 224 224 224 225 226 225 223 223
206 205 205 204 202 203 203 205 208 209 211 211 213 218 221 221 223 225 225 226 229 232 235 238 239 237 236 235 234 233 230 227 225 223 223 224 225 226 226 225 223 223
206 206 204 201 200 202 205 207 209 211 212 213 215 219 221 222 224 226 228 230 232 235 238 240 239 238 237 234 231 230 228 224 222 222 223 225 227 228 228 227 226 224
206 203 198 198 201 204 207 209 210 211 212 214 218 219 221 224 226 228 232 234 236 238 239 239 237 236 236 233 230 229 226 225 224 225 226 227 229 230 229 229 229 227
204 198 195 198 204 206 208 209 210 212 214 216 218 219 221 224 226 230 234 235 237 238 236 234 234 234 233 230 229 228 227 226 227 228 230 230 232 233 232 231 230 229
198 198 200 202 204 207 208 209 210 212 215 216 218 220 222 225 228 231 233 234 234 234 232 230 231 232 232 230 227 227 227 227 228 230 232 232 234 236 235 233 232 232
200 205 207 205 206 209 210 211 212 213 215 217 220 221 223 226 229 230 231 230 228 229 230 230 231 232 233 232 230 228 228 229 231 232 232 232 233 235 235 235 234 234
206 208 210 210 211 213 214 214 215 216 217 220 221 222 224 226 228 228 228 227 225 228 231 232 233 235 237 236 234 232 230 232 234 234 233 232 233 235 236 236 237 237
209 210 212 214 214 216 217 217 217 218 219 221 222 223 225 226 227 228 227 226 226 229 232 233 235 238 239 240 239 236 234 234 236 237 236 234 235 237 238 239 240 240
211 212 214 214 215 217 218 217 218 219 218 219 222 224 225 227 228 228 228 228 228 229 232 235 237 239 240 240 240 239 238 237 236 236 237 237 237 239 240 241 242 242
214 214 215 216 217 218 219 219 220 220 219 219 221 224 225 227 228 228 228 228 228 230 235 239 240 242 244 242 240 239 240 240 238 237 237 237 238 240 242 243 244 245
214 216 216 217 219 221 221 220 219 220 221 221 222 223 225 226 228 228 228 228 229 234 239 243 244 247 248 246 243 242 241 242 242 240 239 239 240 241 242 244 244 245
215 217 218 219 220 222 222 221 220 220 222 223 224 225 226 227 228 229 229 231 234 238 241 244 247 250 251 248 245 245 243 242 243 243 241 242 242 242 244 246 246 245
217 218 217 218 220 221 221 222 222 222 225 227 227 227 227 229 230 232 236 239 239 239 241 244 247 251 252 248 245 245 243 242 244 245 245 245 246 246 247 249 249 249
218 217 216 217 219 220 222 223 224 225 228 230 232 232 233 234 235 239 243 245 243 239 239 242 246 250 250 247 244 244 244 243 245 247 248 249 250 249 248 249 250 251
218 216 216 217 219 220 222 223 225 227 230 232 233 235 237 238 240 243 245 245 242 238 237 239 245 250 249 245 243 244 245 246 248 249 249 249 249 249 249 249 249 251
215 215 215 215 217 219 220 222 225 228 230 231 232 235 239 241 242 243 244 243 240 236 235 238 245 250 249 246 245 246 247 248 249 248 248 248 248 249 251 252 252 253
213 212 213 214 216 218 220 223 227 230 230 231 234 239 242 242 241 241 244 244 240 236 236 240 244 249 249 247 248 250 249 248 248 248 248 250 252 253 255 256 256 258
209 209 211 212 214 218 221 224 227 228 228 230 235 239 240 239 239 241 243 243 238 236 239 242 245 248 250 250 252 253 250 247 248 249 250 253 256 258 259 260 260 261
203 205 206 207 210 214 218 220 221 223 225 229 234 237 238 239 240 242 243 242 238 237 240 244 248 250 252 253 254 254 252 249 249 251 254 257 259 261 262 263 263 263